Date,TemperatureHighF,TemperatureAvgF,TemperatureLowF,DewpointHighF,DewpointAvgF,DewpointLowF,HumidityHigh,HumidityAvg,HumidityLow,PressureMaxIn,PressureMinIn,WindSpeedMaxMPH,WindSpeedAvgMPH,GustSpeedMaxMPH,PrecipitationSumIn
2013-1-1,32.2,29.7,25.7,21.9,20.1,18.5,79,67,59,29.67,29.09,4,0,7,0.00
2013-1-2,27.0,19.9,16.4,20.8,16.6,13.7,92,87,74,29.50,29.10,2,0,2,0.00
2013-1-3,27.5,22.6,16.9,19.4,16.4,13.2,90,77,64,29.60,29.50,2,1,2,0.00
2013-1-4,24.7,15.2,10.1,15.6,10.3,6.5,87,81,63,29.79,29.57,2,0,2,0.00
2013-1-5,14.9,12.0,9.0,10.6,8.5,6.0,90,85,80,29.78,29.35,2,0,2,0.00
2013-1-6,17.7,11.6,5.8,12.8,8.1,3.5,92,86,79,29.36,29.19,2,0,2,0.00
2013-1-7,11.7,6.6,-1.5,9.6,4.0,-4.4,92,89,86,29.47,29.12,2,0,2,0.00
2013-1-8,-0.3,-3.1,-6.8,-3.2,-6.1,-10.1,88,86,84,30.09,29.47,0,0,1,0.00
2013-1-9,-1.0,-4.5,-8.2,-3.9,-7.6,-11.7,88,86,84,30.16,29.90,1,0,2,0.00
2013-1-10,11.0,7.6,-1.1,8.9,5.2,-4.0,91,90,87,30.07,29.87,1,0,1,0.00
2013-1-11,13.7,11.8,7.0,11.8,9.8,4.7,93,91,89,30.16,29.83,1,0,1,0.00
2013-1-12,28.9,19.4,12.5,25.8,17.7,10.5,96,93,88,30.15,29.68,0,0,0,0.00
2013-1-13,33.5,30.7,28.7,32.2,29.5,25.8,97,95,88,29.69,29.46,0,0,0,0.00
2013-1-14,35.0,32.6,26.3,33.7,31.4,21.9,98,95,83,29.77,29.17,5,0,7,0.29
2013-1-15,26.1,13.1,8.7,21.7,10.0,6.4,92,87,80,30.17,29.76,5,0,8,0.00
2013-1-16,12.4,7.5,2.8,10.3,5.2,0.1,92,90,87,30.18,29.80,1,0,1,0.00
2013-1-17,13.2,3.0,-11.1,10.5,-1.2,-15.0,92,82,72,30.15,29.76,3,0,6,0.00
2013-1-18,-6.6,-12.2,-16.0,-12.1,-16.5,-19.8,85,81,74,30.43,30.15,1,0,2,0.00
2013-1-19,5.0,0.0,-7.2,-2.7,-6.4,-13.1,78,74,67,30.43,30.08,1,0,3,0.00
2013-1-20,9.9,7.0,1.5,7.5,3.4,-4.7,90,85,70,30.09,30.00,1,0,1,0.00
2013-1-21,8.8,5.8,-2.4,6.5,2.6,-5.5,90,86,78,30.11,29.99,0,0,0,0.00
2013-1-22,6.2,1.7,-3.2,2.7,-1.6,-6.3,88,86,82,29.99,29.71,0,0,0,0.00
2013-1-23,8.5,5.5,2.0,3.7,-0.6,-6.7,87,75,65,29.72,29.58,0,0,0,0.00
2013-1-24,1.9,-4.1,-12.3,-6.5,-13.5,-18.9,72,63,60,29.83,29.64,4,0,8,0.00
2013-1-25,-12.4,-21.0,-29.5,-18.9,-25.9,-34.2,80,77,71,30.03,29.83,1,0,1,0.00
2013-1-26,-24.3,-29.3,-32.4,-28.9,-34.0,-37.2,79,77,75,30.18,30.03,0,0,0,0.00
2013-1-27,-31.9,-36.5,-39.2,-36.8,-41.6,-44.5,76,74,73,30.64,30.18,0,0,0,0.00
2013-1-28,-13.8,-28.8,-38.6,-17.9,-33.5,-44.0,83,77,73,30.67,30.11,0,0,0,0.00
2013-1-29,-6.2,-9.4,-13.9,-11.0,-15.0,-18.9,81,76,67,30.11,29.90,0,0,0,0.00
2013-1-30,9.0,1.2,-6.7,4.9,-3.5,-11.1,85,80,75,29.94,29.68,0,0,0,0.00
2013-1-31,10.4,7.5,4.6,6.3,4.1,0.6,89,86,78,30.08,29.70,0,0,0,0.00
2013-2-1,7.3,1.9,-5.4,4.3,-0.9,-8.7,90,88,84,30.14,29.86,0,0,0,0.00
2013-2-2,18.0,9.7,5.0,11.7,5.9,1.5,90,84,74,29.87,29.49,0,0,0,0.00
2013-2-3,11.5,8.4,5.0,8.5,5.8,2.2,92,89,86,29.49,29.30,0,0,0,0.00
2013-2-4,15.4,9.9,6.1,12.8,7.6,3.3,92,90,88,29.62,29.45,0,0,0,0.00
2013-2-5,7.1,2.6,-2.6,4.6,-0.0,-5.5,91,88,86,29.63,29.58,0,0,0,0.00
2013-2-6,5.1,1.3,-3.1,2.1,-1.5,-6.2,89,88,86,29.70,29.57,0,0,0,0.00
2013-2-7,9.9,1.9,-5.3,7.8,-0.8,-8.4,91,88,85,29.68,29.29,0,0,0,0.00
2013-2-8,7.6,3.0,0.4,5.3,0.2,-2.5,90,88,84,29.80,29.31,0,0,0,0.00
2013-2-9,28.8,17.8,2.1,23.8,14.7,-0.4,95,88,79,29.79,29.00,0,0,0,0.00
2013-2-10,32.1,21.7,9.3,27.8,18.6,6.7,93,88,79,29.44,28.91,0,0,0,0.00
2013-2-11,20.9,14.5,3.6,16.5,11.6,-99.9,93,89,81,29.68,29.44,0,-4,0,0.00
2013-2-12,15.2,5.9,-0.8,12.7,3.4,-3.7,92,89,85,29.77,29.68,0,0,0,0.00
2013-2-13,19.7,10.0,3.7,16.2,7.7,1.2,93,90,83,29.77,29.72,0,0,0,0.00
2013-2-14,25.3,20.2,11.3,17.4,13.6,9.1,92,76,59,29.73,29.30,0,0,0,0.00
2013-2-15,21.9,8.3,-6.4,17.3,4.2,-10.2,89,83,79,30.01,29.39,0,0,0,0.00
2013-2-16,2.1,-6.1,-12.8,-3.3,-9.8,-16.5,87,84,76,30.09,29.88,0,0,0,0.00
2013-2-17,-2.2,-5.9,-10.1,-5.1,-9.9,-15.0,87,82,78,30.16,29.82,0,0,0,0.00
2013-2-18,-10.2,-17.8,-24.5,-15.1,-22.3,-29.1,82,79,74,30.27,30.15,0,0,0,0.00
2013-2-19,-4.1,-16.0,-27.2,-10.5,-20.9,-31.9,82,77,72,30.15,29.60,0,0,0,0.00
2013-2-20,6.5,-5.0,-15.3,-2.5,-11.1,-19.9,83,75,60,29.60,29.38,0,0,0,0.00
2013-2-21,1.4,-1.8,-5.1,-4.6,-6.9,-8.8,86,78,68,29.43,29.32,0,0,0,0.00
2013-2-22,-3.7,-9.0,-18.2,-8.0,-13.4,-22.5,84,81,74,29.61,29.36,0,0,0,0.00
2013-2-23,4.3,-5.1,-14.5,-1.9,-9.9,-18.7,85,79,71,29.54,29.31,0,0,0,0.00
2013-2-24,8.0,-4.0,-10.1,0.2,-8.5,-13.6,87,81,69,29.68,29.33,0,0,0,0.00
2013-2-25,20.0,4.7,-7.6,11.2,0.2,-11.1,90,82,65,29.74,29.68,0,0,0,0.00
2013-2-26,27.0,13.3,3.7,10.2,6.1,0.2,90,74,44,29.74,29.43,0,0,0,0.00
2013-2-27,29.5,18.4,8.7,15.8,10.3,4.0,83,71,53,29.43,29.27,0,0,0,0.00
2013-2-28,32.2,18.2,8.7,18.4,10.7,4.7,86,73,43,29.43,29.32,0,0,0,0.00
2013-3-1,13.0,8.8,4.4,8.6,5.3,1.3,90,85,80,29.96,29.42,0,0,0,0.00
2013-3-2,20.3,6.5,-1.7,13.1,3.1,-5.0,91,85,73,30.12,29.96,0,0,0,0.00
2013-3-3,26.7,8.8,-1.2,17.0,4.9,-4.4,91,84,66,30.37,30.12,0,0,0,0.00
2013-3-4,32.0,14.2,2.4,19.0,9.0,-0.3,92,80,53,30.42,30.23,0,0,0,0.00
2013-3-5,35.2,19.3,11.4,17.5,11.9,7.8,86,74,44,30.23,29.87,0,0,0,0.00
2013-3-6,21.5,12.1,5.6,10.3,6.0,1.8,85,76,59,29.88,29.81,3,0,4,0.00
2013-3-7,35.2,22.8,5.5,21.6,13.6,1.9,89,69,50,29.81,29.36,3,0,6,0.00
2013-3-8,42.2,31.5,23.6,26.2,21.8,17.2,80,68,48,29.56,29.41,2,0,4,0.00
2013-3-9,35.9,27.6,18.4,25.4,21.3,13.1,90,77,63,29.94,29.56,3,0,6,0.01
2013-3-10,27.9,19.4,9.9,23.7,14.3,6.6,92,81,64,30.25,29.94,4,0,5,0.00
2013-3-11,26.9,13.5,4.0,14.9,7.8,1.0,90,79,58,30.53,30.25,3,0,5,0.00
2013-3-12,23.5,9.2,-1.0,5.0,0.1,-4.5,88,68,38,30.54,30.31,3,0,4,0.00
2013-3-13,16.4,3.5,-4.6,-0.3,-8.6,-18.0,78,58,36,30.31,30.20,9,2,17,0.00
2013-3-14,17.3,3.7,-7.2,-5.0,-12.5,-19.9,54,46,34,30.22,30.12,5,1,10,0.00
2013-3-15,22.5,8.4,-3.7,-3.3,-9.2,-14.2,61,45,26,30.14,29.89,8,1,9,0.00
2013-3-16,23.7,10.1,-2.5,3.1,-4.0,-10.8,73,53,36,30.15,29.96,5,1,7,0.00
2013-3-17,17.9,6.3,-4.0,0.7,-3.0,-8.6,81,66,44,30.26,30.11,2,0,4,0.00
2013-3-18,19.2,6.1,-4.1,1.3,-3.5,-8.6,82,65,43,30.11,29.96,4,0,5,0.00
2013-3-19,16.6,5.5,-3.0,-0.6,-5.7,-8.8,77,61,38,30.10,30.00,5,1,6,0.00
2013-3-20,11.2,-0.3,-10.0,-0.7,-8.0,-15.2,83,70,51,30.01,29.88,3,0,7,0.00
2013-3-21,18.5,7.9,-0.6,10.5,2.8,-4.0,87,80,66,30.07,29.95,3,0,4,0.00
2013-3-22,29.9,19.0,9.8,15.8,6.7,1.6,81,59,43,29.98,29.62,9,1,12,0.00
2013-3-23,19.8,2.1,-9.5,14.9,-7.4,-14.8,82,65,39,30.03,29.65,7,1,8,0.00
2013-3-24,14.7,0.6,-12.2,4.0,-6.6,-16.4,86,73,44,30.01,29.72,3,0,4,0.00
2013-3-25,9.9,4.3,-0.2,4.3,-0.4,-4.4,87,81,64,29.72,29.57,6,0,8,0.00
2013-3-26,3.5,-2.0,-10.5,-4.1,-10.2,-99.9,82,74,65,30.17,29.72,7,-23,13,0.00
2013-3-27,8.2,-5.1,-19.1,-0.3,-11.3,-23.6,83,74,62,30.24,30.10,4,0,5,0.00
2013-3-28,28.9,10.3,-7.7,19.1,2.8,-11.9,84,72,53,30.11,29.85,3,0,6,0.00
2013-3-29,42.8,25.9,11.5,22.3,14.6,6.6,83,65,34,29.86,29.79,2,0,6,0.12
2013-3-30,38.4,25.5,12.4,21.8,14.6,8.4,86,65,40,30.13,29.85,4,0,5,0.01
2013-3-31,39.2,29.9,20.1,27.2,21.8,14.8,89,72,55,30.17,30.07,3,0,5,0.01
2013-4-1,37.7,29.8,21.8,28.9,22.8,15.4,96,77,52,30.07,29.98,6,0,7,0.01
2013-4-2,35.2,24.4,13.0,17.8,13.9,9.5,86,65,46,30.13,30.01,3,1,6,0.00
2013-4-3,33.2,22.6,14.3,13.1,7.8,-1.3,75,55,33,30.41,30.13,6,1,8,0.00
2013-4-4,30.3,18.7,8.9,1.7,-0.9,-4.0,60,43,24,30.42,30.03,6,1,11,0.00
2013-4-5,19.1,11.2,1.0,0.6,-6.1,-10.3,59,45,32,30.03,29.69,9,1,13,0.00
2013-4-6,20.2,8.3,-3.0,-1.1,-7.0,-11.7,66,50,35,29.69,29.55,8,1,10,0.00
2013-4-7,9.6,5.5,-2.8,1.8,-1.9,-7.8,83,71,54,29.86,29.59,2,0,5,0.00
2013-4-8,16.2,3.5,-8.8,8.5,-1.1,-12.5,88,81,64,29.89,29.42,4,0,4,0.00
2013-4-9,13.1,8.6,5.7,6.3,4.3,0.1,88,82,71,29.42,29.09,4,0,7,0.00
2013-4-10,14.9,6.2,-1.8,2.3,-2.5,-9.0,82,67,47,29.91,29.39,3,0,7,0.00
2013-4-11,15.9,3.9,-9.7,-0.2,-6.2,-13.9,82,64,39,30.21,29.91,6,0,10,0.00
2013-4-12,23.3,8.4,-6.9,4.6,-2.1,-10.7,85,64,42,30.31,30.21,5,1,10,0.00
2013-4-13,26.5,14.1,-2.5,4.9,0.7,-7.3,82,57,36,30.44,30.31,7,1,9,0.00
2013-4-14,26.2,17.5,7.8,19.4,9.2,-0.2,86,70,53,30.52,30.44,4,0,5,0.00
2013-4-15,31.8,22.1,13.2,13.1,7.0,4.0,86,55,31,30.48,30.39,8,1,8,0.05
2013-4-16,30.3,23.3,16.6,17.0,9.0,4.8,83,55,39,30.39,30.20,4,1,8,0.00
2013-4-17,31.8,22.2,10.7,11.2,8.3,4.4,76,56,38,30.33,30.20,8,1,11,0.03
2013-4-18,33.5,23.0,10.9,9.5,5.6,2.1,69,48,30,30.38,30.32,6,1,11,0.01
2013-4-19,39.8,24.2,10.5,13.7,8.4,3.5,74,53,24,30.43,30.35,5,1,7,0.01
2013-4-20,43.3,30.6,15.7,18.6,11.3,7.3,73,48,23,30.35,30.21,10,1,10,0.00
2013-4-21,45.0,31.6,16.6,19.2,12.7,-99.9,78,50,20,30.30,30.24,4,1,7,0.00
2013-4-22,47.7,33.4,18.4,22.7,15.5,11.6,75,51,24,30.40,30.30,10,1,12,0.00
2013-4-23,48.9,36.2,22.3,20.8,17.1,12.8,78,50,25,30.33,30.11,10,1,14,0.00
2013-4-24,36.7,32.6,26.3,29.1,25.3,18.0,92,75,49,30.11,29.91,8,1,10,0.11
2013-4-25,33.1,25.8,15.5,19.1,4.5,-4.3,68,42,24,30.03,29.93,6,1,10,0.02
2013-4-26,32.7,22.7,11.8,22.2,11.9,4.4,91,64,43,29.94,29.55,5,1,7,0.00
2013-4-27,30.3,24.2,15.3,19.8,8.1,-4.6,91,54,27,30.09,29.61,11,1,11,0.00
2013-4-28,36.0,22.5,5.2,17.2,5.6,-2.9,73,50,29,30.12,30.04,4,1,10,0.00
2013-4-29,32.9,27.3,19.5,26.9,20.4,13.3,95,75,64,30.07,30.01,6,1,9,0.00
2013-4-30,36.3,29.9,25.5,28.8,26.2,23.1,95,86,67,30.01,29.79,4,0,7,0.20
2013-5-1,36.0,28.0,21.2,25.4,20.7,11.6,91,75,58,29.80,29.59,5,1,8,0.18
2013-5-2,37.5,28.1,18.6,23.8,17.9,11.7,81,66,50,29.85,29.65,5,1,7,0.02
2013-5-3,37.4,31.5,25.7,29.9,26.2,19.1,92,81,63,29.88,29.77,5,1,6,0.01
2013-5-4,34.5,26.6,17.6,24.0,20.3,15.4,93,78,55,29.93,29.83,4,0,5,0.03
2013-5-5,39.6,30.9,20.2,21.4,14.8,9.0,85,55,30,30.07,29.93,8,1,11,0.00
2013-5-6,39.5,34.5,21.0,21.7,14.1,11.5,75,45,32,30.13,30.04,3,1,5,0.00
2013-5-7,46.1,35.9,23.0,23.8,18.5,12.4,80,52,27,30.19,30.13,6,1,8,0.00
2013-5-8,49.7,37.9,24.2,26.1,20.5,15.2,81,53,26,30.26,30.16,8,1,10,0.00
2013-5-9,56.7,42.6,26.3,28.5,23.3,17.9,87,52,23,30.29,30.12,5,1,7,0.00
2013-5-10,56.8,46.6,34.6,29.4,26.0,19.5,79,48,24,30.14,29.86,8,1,10,0.00
2013-5-11,56.8,44.8,36.3,30.1,27.7,24.1,70,52,31,29.85,29.58,3,1,6,0.00
2013-5-12,51.6,43.9,35.5,32.6,28.8,24.9,77,57,37,29.58,29.38,9,1,13,0.00
2013-5-13,35.3,27.5,19.0,23.6,7.6,1.9,63,43,30,29.59,29.42,5,1,10,0.00
2013-5-14,41.2,31.4,21.0,17.3,13.8,11.1,77,50,31,29.61,29.55,5,1,9,0.00
2013-5-15,48.2,36.2,21.6,22.4,17.2,13.8,80,49,29,29.63,29.55,7,1,8,0.00
2013-5-16,51.8,40.8,26.7,29.2,23.4,18.6,78,52,27,29.59,29.33,7,1,10,0.00
2013-5-17,39.4,32.7,24.5,30.8,27.6,21.0,89,82,65,29.59,29.30,5,1,8,0.03
2013-5-18,32.1,25.5,19.2,21.1,9.5,4.0,88,53,31,30.13,29.59,9,1,12,0.00
2013-5-19,43.8,32.7,18.9,18.0,10.8,5.9,70,42,26,30.51,30.13,6,1,9,0.01
2013-5-20,53.6,40.5,25.9,21.2,16.6,12.2,72,41,20,30.57,30.34,7,1,10,0.00
2013-5-21,60.0,46.1,29.5,21.5,17.3,-99.9,67,35,14,30.37,30.05,5,1,9,0.00
2013-5-22,65.3,51.5,36.7,27.8,23.8,18.2,60,36,21,30.05,29.87,5,1,9,0.00
2013-5-23,61.7,51.9,39.8,40.5,34.1,27.3,66,51,37,30.02,29.91,8,1,8,0.00
2013-5-24,68.3,55.9,40.1,41.7,37.1,32.8,85,53,28,30.04,29.87,5,1,8,0.00
2013-5-25,74.3,62.2,46.9,34.1,30.2,25.4,54,32,17,29.88,29.71,5,1,8,0.00
2013-5-26,77.5,63.7,44.0,37.0,31.8,28.5,61,33,18,29.77,29.66,7,1,8,0.00
2013-5-27,80.9,66.6,51.4,41.8,37.8,34.2,58,37,22,29.76,29.64,5,1,7,0.00
2013-5-28,81.2,66.7,49.2,41.6,38.2,34.2,67,38,19,29.67,29.56,4,1,8,0.00
2013-5-29,81.0,69.3,55.3,40.1,33.4,24.5,50,29,13,29.59,29.53,8,1,8,0.00
2013-5-30,82.6,67.9,50.1,41.5,37.2,29.0,64,35,15,29.74,29.59,5,1,6,0.00
2013-5-31,81.1,68.0,55.9,48.8,38.3,21.6,67,38,12,29.85,29.74,5,1,9,0.00
2013-6-1,78.1,66.6,52.8,44.6,36.5,31.1,61,34,20,29.96,29.85,7,1,8,0.00
2013-6-2,78.5,64.8,48.5,46.2,41.1,36.8,74,46,25,29.95,29.75,6,1,11,0.00
2013-6-3,65.1,55.9,50.0,49.1,45.9,44.0,88,70,48,29.80,29.55,5,1,11,0.00
2013-6-4,60.6,52.4,45.6,48.8,45.7,41.0,97,80,49,29.55,29.45,5,0,7,0.23
2013-6-5,55.6,49.6,45.5,50.2,46.5,43.3,97,89,72,29.77,29.51,7,1,10,0.15
2013-6-6,62.8,53.1,43.5,50.6,45.3,41.4,97,77,46,29.80,29.69,4,0,6,0.02
2013-6-7,69.2,56.6,44.6,48.3,44.1,38.5,93,66,34,29.83,29.72,4,0,6,0.00
2013-6-8,71.7,60.9,49.0,49.6,43.9,38.4,87,57,31,30.01,29.83,3,0,9,0.00
2013-6-9,66.0,57.7,49.6,48.6,42.3,37.2,75,57,42,30.12,30.01,5,1,10,0.00
2013-6-10,58.6,52.0,47.4,45.7,42.6,40.5,92,71,52,30.17,30.12,7,1,8,0.00
2013-6-11,62.7,49.7,41.2,46.1,41.6,38.5,92,75,48,30.18,30.12,2,0,6,0.00
2013-6-12,70.2,69.9,67.6,35.5,31.9,30.8,30,24,24,29.96,29.95,3,1,5,0.00
2013-6-13,81.8,67.2,49.8,47.7,38.9,31.0,77,40,18,30.07,30.01,3,1,7,0.00
2013-6-14,66.6,66.2,61.2,40.0,36.8,35.8,44,34,32,30.06,30.04,1,1,2,0.00
2013-6-15,82.8,66.1,52.6,50.0,44.4,36.1,73,47,25,30.14,30.05,4,0,5,0.00
2013-6-16,87.2,73.8,61.5,57.5,52.5,47.3,73,49,30,30.13,30.02,5,0,6,0.00
2013-6-17,86.2,73.6,61.1,54.9,43.4,30.5,77,39,14,30.09,29.97,5,0,7,0.00
2013-6-18,85.6,72.6,59.1,46.8,42.5,38.6,58,36,20,29.99,29.75,6,1,11,0.00
2013-6-19,85.6,74.0,62.6,48.3,43.5,37.6,51,35,19,29.79,29.67,8,1,15,0.00
2013-6-20,84.6,71.6,58.2,51.3,45.7,38.7,73,42,21,29.80,29.66,4,1,6,0.00
2013-6-21,72.3,62.7,55.9,59.5,52.7,45.3,95,71,39,29.79,29.66,6,0,8,0.13
2013-6-22,74.8,61.8,48.8,50.5,45.5,39.8,90,59,31,29.78,29.60,5,1,11,0.00
2013-6-23,82.3,67.2,50.1,51.3,45.6,37.0,85,51,21,29.61,29.47,3,0,7,0.00
2013-6-24,86.3,72.2,58.7,53.7,49.0,42.3,76,47,23,29.54,29.47,3,0,8,0.00
2013-6-25,91.3,76.7,63.2,57.5,52.9,46.7,75,47,23,29.55,29.48,5,0,9,0.00
2013-6-26,90.2,76.8,62.7,60.1,54.4,50.5,74,48,26,29.58,29.52,2,0,5,0.00
2013-6-27,80.5,71.5,63.5,62.8,58.4,52.9,89,64,49,29.86,29.58,4,0,6,0.01
2013-6-28,79.0,70.1,62.6,58.9,55.1,50.8,82,60,39,29.92,29.86,4,0,9,0.00
2013-6-29,77.2,67.2,58.3,60.2,56.4,52.7,87,69,44,29.89,29.78,3,0,3,0.00
2013-6-30,83.0,70.2,55.7,58.7,54.0,45.5,89,59,39,29.79,29.50,4,0,7,0.00
2013-7-1,76.7,65.0,57.2,54.5,49.0,42.6,84,58,34,29.52,29.34,7,0,9,0.03
2013-7-2,70.2,59.9,49.9,47.9,44.1,38.7,87,58,35,29.62,29.41,8,1,9,0.00
2013-7-3,66.5,57.3,49.4,53.6,45.4,40.2,87,66,44,29.82,29.63,3,0,5,0.03
2013-7-4,68.0,56.1,45.8,46.7,42.8,37.6,90,64,33,29.92,29.78,9,1,12,0.01
2013-7-5,65.0,53.6,43.8,50.2,45.9,42.7,97,77,48,29.97,29.86,3,0,8,0.03
2013-7-6,73.5,58.2,44.3,51.5,45.4,42.6,95,67,35,29.87,29.64,6,0,6,0.00
2013-7-7,71.6,61.2,49.5,51.1,46.0,41.3,83,59,35,29.64,29.41,6,0,8,0.00
2013-7-8,62.4,55.6,49.7,55.1,49.6,44.9,94,81,63,29.62,29.44,6,0,6,0.03
2013-7-9,62.1,56.2,49.4,50.7,48.7,47.0,96,76,60,29.90,29.62,6,0,9,0.00
2013-7-10,56.8,54.6,50.9,49.8,48.8,47.9,95,81,74,29.96,29.90,4,0,6,0.16
2013-7-11,67.6,56.5,47.7,53.7,49.9,46.9,98,80,52,30.00,29.95,2,0,7,0.00
2013-7-12,78.2,62.4,49.3,50.1,45.5,38.7,90,59,26,29.97,29.86,3,0,8,0.00
2013-7-13,83.9,67.7,51.4,49.9,44.5,39.8,80,47,22,29.92,29.87,3,0,5,0.00
2013-7-14,86.6,70.6,54.3,56.4,49.3,44.1,81,50,24,30.00,29.90,4,0,6,0.00
2013-7-15,79.7,69.4,62.1,55.0,52.3,49.2,73,56,35,30.07,29.98,4,0,5,0.00
2013-7-16,65.9,62.1,58.7,54.9,52.9,49.2,82,72,62,30.06,30.00,3,0,7,0.00
2013-7-17,69.9,61.2,55.4,53.8,51.5,47.9,87,72,49,30.00,29.95,3,0,6,0.00
2013-7-18,72.1,61.4,54.3,57.7,51.7,47.8,97,73,44,30.04,29.94,6,0,8,0.54
2013-7-19,60.2,57.1,53.3,57.0,55.2,51.4,98,94,87,30.02,29.96,4,1,7,0.19
2013-7-20,61.6,55.2,51.2,54.8,51.4,50.1,96,88,70,30.02,29.99,9,1,9,0.17
2013-7-21,64.6,57.2,51.1,53.0,50.3,47.8,93,79,58,30.08,30.00,4,0,5,0.00
2013-7-22,72.4,58.9,45.4,56.5,50.4,44.6,98,76,46,30.12,30.01,3,0,5,0.00
2013-7-23,77.0,64.0,53.8,58.2,54.0,51.2,92,72,43,30.03,29.91,3,0,9,0.00
2013-7-24,72.9,64.4,58.1,60.7,56.6,54.8,91,76,57,29.93,29.85,5,0,8,0.00
2013-7-25,73.4,63.5,57.0,57.1,51.1,43.9,86,66,38,29.96,29.87,3,0,5,0.00
2013-7-26,72.7,62.2,50.1,56.4,50.7,41.8,93,69,38,30.09,29.96,5,0,9,0.00
2013-7-27,78.5,65.8,53.9,59.6,55.3,51.4,94,71,45,30.15,30.09,3,0,8,0.00
2013-7-28,85.3,71.0,54.3,61.2,54.8,50.9,92,60,31,30.11,29.94,5,0,6,0.00
2013-7-29,77.0,68.8,60.3,57.3,54.6,50.8,81,62,41,30.02,29.94,8,1,10,0.00
2013-7-30,74.5,64.2,53.4,56.4,52.4,50.1,91,68,44,30.09,30.00,6,0,9,0.00
2013-7-31,79.8,65.0,49.1,57.6,51.4,47.1,93,65,37,30.07,29.92,3,0,5,0.00
2013-8-1,84.0,68.4,52.6,56.0,51.7,47.9,88,59,29,29.93,29.71,3,0,4,0.00
2013-8-2,82.5,70.2,58.9,53.8,49.5,42.1,79,51,25,29.75,29.61,4,0,9,0.00
2013-8-3,81.2,66.2,56.1,52.9,47.5,43.2,75,53,27,29.62,29.53,7,0,17,0.00
2013-8-4,73.0,62.8,53.4,52.7,47.3,42.4,85,59,37,29.79,29.62,6,0,8,0.02
2013-8-5,74.9,61.0,47.6,54.5,49.1,44.0,98,69,35,29.84,29.76,3,0,5,0.01
2013-8-6,78.6,65.4,51.1,50.8,46.4,39.0,85,54,25,29.85,29.70,4,0,8,0.00
2013-8-7,84.1,67.6,50.8,52.3,46.9,42.3,82,51,24,29.72,29.50,6,0,8,0.00
2013-8-8,79.5,66.6,53.8,50.2,45.6,40.7,79,50,26,29.56,29.49,4,0,8,0.00
2013-8-9,69.8,61.2,52.6,53.1,48.0,43.0,83,63,44,29.59,29.53,3,0,3,0.00
2013-8-10,65.8,58.0,50.3,52.9,48.3,45.9,88,71,50,29.89,29.59,5,0,5,0.00
2013-8-11,74.6,57.9,44.4,56.9,43.4,-99.9,95,68,38,29.97,29.84,3,0,4,0.00
2013-8-12,75.6,63.3,53.9,59.1,54.6,51.0,91,75,53,29.95,29.86,4,0,7,0.00
2013-8-13,77.9,63.9,52.2,60.4,55.7,51.1,96,77,50,29.88,29.72,3,0,3,0.00
2013-8-14,65.6,60.5,54.2,56.0,53.8,50.7,94,79,64,29.80,29.71,5,0,9,0.00
2013-8-15,64.7,56.5,49.9,58.9,53.2,48.0,97,89,69,29.76,29.60,1,0,1,0.40
2013-8-16,66.0,57.0,49.3,59.6,54.1,48.8,99,91,71,29.61,29.53,3,0,3,0.00
2013-8-17,72.1,59.0,47.2,56.9,51.3,46.7,99,78,44,29.54,29.40,2,0,3,0.00
2013-8-18,70.0,59.9,50.0,56.0,51.2,47.5,95,74,49,29.45,29.39,2,0,3,0.00
2013-8-19,65.6,56.5,48.7,53.5,48.6,37.4,94,77,38,29.55,29.45,5,0,7,0.03
2013-8-20,54.7,50.3,44.4,52.1,48.9,43.9,98,95,87,29.69,29.54,3,0,5,0.73
2013-8-21,60.5,50.4,43.8,49.9,45.9,41.6,99,86,55,29.72,29.62,2,0,5,0.02
2013-8-22,64.0,52.2,40.3,53.9,46.1,39.3,97,81,56,29.63,29.48,2,0,3,0.01
2013-8-23,54.5,51.0,44.7,53.0,49.8,43.9,98,96,91,29.61,29.42,3,0,6,0.77
2013-8-24,58.3,47.3,40.3,45.0,41.6,36.7,98,83,49,29.85,29.61,2,0,4,0.01
2013-8-25,59.0,44.8,30.6,41.5,35.8,29.9,98,74,38,29.85,29.67,3,0,5,0.00
2013-8-26,63.4,48.9,36.2,44.5,36.9,31.7,90,66,36,29.75,29.68,3,0,5,0.00
2013-8-27,62.4,49.3,37.4,49.4,40.7,34.1,91,74,49,29.73,29.57,2,0,4,0.00
2013-8-28,55.6,50.7,46.3,48.2,45.4,41.5,96,82,60,29.63,29.57,3,0,5,0.03
2013-8-29,53.4,48.8,44.2,50.6,47.1,42.7,98,94,82,29.77,29.57,1,0,3,0.13
2013-8-30,54.1,48.8,42.7,48.9,44.2,38.2,99,85,56,29.89,29.77,3,0,5,0.02
2013-8-31,48.9,42.4,36.5,39.1,33.9,27.9,92,73,47,29.91,29.84,2,0,3,0.00
2013-9-1,47.9,40.8,32.4,44.7,37.1,30.1,96,87,63,29.84,29.60,1,0,2,0.06
2013-9-2,56.1,49.2,43.5,54.7,48.4,42.5,99,97,93,29.60,29.30,1,0,1,0.39
2013-9-3,62.8,53.2,46.7,56.5,50.9,46.2,99,92,69,29.34,29.10,3,0,5,0.17
2013-9-4,58.0,48.7,42.6,54.2,47.2,42.1,99,95,76,29.58,29.25,3,0,6,0.10
2013-9-5,57.1,47.6,38.3,51.8,44.8,37.8,99,90,69,29.89,29.58,2,0,3,0.00
2013-9-6,50.3,44.5,37.0,47.4,43.1,36.5,99,95,87,29.92,29.39,2,0,4,0.07
2013-9-7,53.8,47.3,42.8,51.8,46.5,42.5,99,97,89,29.59,29.39,1,0,1,0.01
2013-9-8,53.7,48.8,45.0,51.9,48.1,44.5,99,97,92,29.69,29.39,1,0,2,0.21
2013-9-9,59.4,50.2,43.3,51.6,46.8,43.0,100,89,63,29.73,29.59,2,0,4,0.01
2013-9-10,66.5,53.8,44.1,52.5,46.1,42.3,96,77,42,29.61,29.56,3,0,3,0.00
2013-9-11,52.1,47.4,44.4,49.2,46.1,43.2,98,95,86,29.72,29.48,4,0,7,0.81
2013-9-12,57.9,46.7,37.6,50.8,44.5,37.1,99,92,71,29.86,29.72,2,0,7,0.01
2013-9-13,49.3,45.4,40.4,48.5,44.5,39.9,99,96,90,29.86,29.76,0,0,0,0.04
2013-9-14,52.9,45.4,35.3,45.9,42.3,34.0,99,89,62,29.99,29.86,3,0,5,0.07
2013-9-15,53.3,38.8,28.2,39.1,34.0,27.7,99,84,52,30.05,29.90,2,0,3,0.00
2013-9-16,54.1,41.0,30.3,33.4,29.7,25.5,92,67,37,29.90,29.62,5,0,7,0.00
2013-9-17,41.5,36.0,31.0,29.4,25.3,21.9,82,65,55,29.62,29.55,3,0,6,0.00
2013-9-18,34.1,31.6,28.4,31.2,29.1,27.2,96,91,82,29.67,29.58,2,0,3,0.06
2013-9-19,37.2,31.1,26.6,30.5,27.6,25.1,97,88,67,29.66,29.53,2,0,3,0.02
2013-9-20,33.5,28.8,24.2,28.9,26.1,23.1,96,90,80,29.53,29.14,1,0,3,0.00
2013-9-21,40.7,30.6,21.5,26.8,22.8,19.8,95,74,48,29.17,29.06,2,0,3,0.00
2013-9-22,31.2,29.7,27.1,28.6,25.9,22.2,94,86,76,29.45,29.17,1,0,3,0.00
2013-9-23,36.2,28.7,21.7,28.1,24.2,20.5,96,84,55,29.81,29.45,3,0,4,0.01
2013-9-24,38.6,31.9,25.6,28.4,24.8,22.5,89,75,55,29.96,29.68,5,0,6,0.00
2013-9-25,51.5,42.4,33.9,40.5,34.2,25.5,89,73,54,29.68,29.32,1,0,4,0.01
2013-9-26,43.7,38.5,33.2,40.8,36.3,31.9,97,92,79,29.56,29.25,0,0,1,0.05
2013-9-27,53.9,43.2,36.3,39.4,36.2,33.1,97,78,50,29.25,29.08,2,0,5,0.00
2013-9-28,46.3,39.1,33.7,37.9,35.0,31.7,94,86,67,29.26,29.17,2,0,4,0.04
2013-9-29,42.7,38.5,35.6,39.0,35.8,30.8,98,91,73,29.55,29.26,2,0,4,0.01
2013-9-30,38.5,36.5,32.2,31.2,28.9,27.8,85,74,66,29.76,29.55,2,0,4,0.00
2013-10-1,35.9,32.6,29.8,32.7,30.3,27.7,97,91,85,29.86,29.76,1,0,2,0.00
2013-10-2,44.5,36.5,31.2,35.8,32.6,29.9,96,86,68,29.86,29.76,2,0,2,0.00
2013-10-3,48.3,39.2,31.8,37.1,33.0,30.0,95,80,57,29.77,29.53,2,0,4,0.00
2013-10-4,39.6,34.6,27.2,33.9,31.5,26.2,96,88,78,29.76,29.51,2,0,3,0.00
2013-10-5,41.6,33.1,26.3,34.3,30.7,25.4,97,91,74,29.77,29.60,2,0,5,0.00
2013-10-6,41.3,35.6,31.8,33.2,31.0,28.4,94,83,70,29.63,29.58,2,0,3,0.00
2013-10-7,33.6,31.7,30.3,32.4,30.7,29.3,97,96,94,29.78,29.63,2,0,2,0.02
2013-10-8,37.9,33.1,30.1,29.5,29.1,27.6,96,85,67,29.65,29.30,3,0,5,0.00
2013-10-9,39.4,34.6,32.5,35.8,33.0,31.2,95,94,82,29.60,28.90,8,1,14,0.31
2013-10-10,36.4,30.7,25.1,32.2,29.1,24.1,97,94,83,29.63,29.55,4,0,5,0.01
2013-10-11,43.7,32.9,28.6,36.1,30.4,27.6,97,91,68,29.76,29.61,2,0,3,0.01
2013-10-12,51.1,40.6,28.6,35.8,32.6,27.6,97,74,53,29.74,29.60,2,0,4,0.00
2013-10-13,46.3,43.3,36.9,36.6,32.3,30.2,94,66,56,29.60,29.31,5,0,6,0.08
2013-10-14,42.6,35.5,31.1,40.0,34.4,30.5,98,96,87,29.84,29.48,3,0,9,0.00
2013-10-15,46.0,40.0,33.0,39.8,35.3,32.2,98,84,63,29.85,29.74,3,0,3,0.03
2013-10-16,50.4,46.3,39.3,41.9,39.4,36.6,93,77,65,29.98,29.81,2,0,7,0.00
2013-10-17,50.8,46.0,42.0,46.3,39.6,36.2,93,78,67,29.88,29.60,2,0,2,0.03
2013-10-18,53.6,44.7,37.2,38.8,33.6,25.8,86,66,44,29.60,29.47,11,1,13,0.00
2013-10-19,53.2,43.0,34.4,37.4,32.1,28.2,91,67,44,29.48,29.21,5,1,9,0.00
2013-10-20,45.0,38.0,31.9,33.6,31.3,28.5,92,77,61,29.80,29.48,2,0,5,0.00
2013-10-21,36.3,30.9,25.3,29.8,26.9,23.3,93,85,71,30.02,29.80,2,0,3,0.00
2013-10-22,37.0,28.4,23.3,28.2,24.4,21.6,94,85,65,30.11,30.02,2,0,2,0.00
2013-10-23,31.2,25.8,22.3,27.0,23.8,20.8,96,92,82,30.08,29.80,2,0,2,0.00
2013-10-24,34.5,26.9,20.0,25.0,22.5,18.6,96,85,61,29.91,29.62,3,0,3,0.00
2013-10-25,40.3,30.9,23.7,27.9,24.2,21.1,90,76,58,30.08,29.63,3,0,3,0.00
2013-10-26,31.5,24.1,18.1,26.0,21.6,16.7,95,90,78,30.43,30.08,2,0,2,0.00
2013-10-27,42.4,36.8,31.7,36.1,27.3,21.3,95,69,53,30.28,29.56,2,0,4,0.08
2013-10-28,49.8,41.5,36.7,40.4,37.7,34.1,96,87,68,29.56,28.93,3,0,8,0.06
2013-10-29,38.7,33.2,26.3,37.0,31.9,25.6,97,95,89,29.43,29.16,5,1,11,0.22
2013-10-30,29.9,27.0,24.6,29.4,26.3,23.6,98,97,95,29.39,29.11,0,0,1,0.00
2013-10-31,26.1,24.2,20.6,24.9,23.1,19.4,97,96,95,29.61,29.18,0,0,0,0.00
2013-11-1,25.4,24.0,23.0,24.7,22.9,21.2,97,95,89,30.02,29.61,1,0,2,0.00
2013-11-2,25.0,21.7,18.2,23.4,20.5,17.0,96,95,93,30.02,29.73,1,0,2,0.00
2013-11-3,31.2,24.8,18.6,27.3,22.7,17.2,97,92,83,29.76,29.53,0,0,1,0.00
2013-11-4,26.3,22.8,20.3,23.9,20.4,18.0,95,90,83,29.53,29.36,0,0,1,0.00
2013-11-5,24.3,20.2,14.7,22.4,17.9,11.8,95,91,85,30.14,29.44,4,0,7,0.00
2013-11-6,14.3,11.4,5.8,12.1,9.1,2.8,93,90,87,30.26,30.05,1,0,2,0.00
2013-11-7,15.1,8.6,3.8,7.6,4.2,1.1,89,82,70,30.05,29.85,2,0,2,0.00
2013-11-8,14.6,4.7,-1.1,12.7,-12.3,-99.9,93,76,84,30.17,29.93,1,0,2,0.00
2013-11-9,22.7,19.0,14.7,19.2,15.8,12.8,93,87,77,30.08,29.67,3,0,6,0.00
2013-11-10,29.8,25.3,21.3,29.1,23.7,18.9,98,94,89,29.83,29.67,0,0,0,0.00
2013-11-11,21.4,12.6,3.2,20.2,10.8,0.9,95,92,87,30.25,29.83,0,0,0,0.00
2013-11-12,10.6,5.1,-2.5,8.7,2.8,-5.4,92,90,87,30.26,30.01,0,0,0,0.00
2013-11-13,40.0,18.2,10.7,36.7,16.1,7.8,99,91,82,30.01,29.53,9,0,14,0.69
2013-11-14,40.4,28.6,17.8,35.0,24.5,11.5,95,85,75,29.98,29.53,9,2,25,0.08
2013-11-15,17.8,9.6,2.8,11.5,6.7,0.1,92,88,76,30.06,29.98,2,0,5,0.00
2013-11-16,15.2,9.0,-2.7,12.8,6.5,-5.6,92,89,86,30.30,30.02,2,0,4,0.00
2013-11-17,0.6,-3.3,-10.4,-2.1,-6.2,-13.9,89,87,84,30.39,30.30,0,0,0,0.00
2013-11-18,-0.5,-1.6,-3.2,-3.3,-4.5,-6.3,89,87,86,30.31,30.15,0,0,0,0.00
2013-11-19,0.7,-2.2,-13.4,-2.0,-34.8,-99.9,89,60,83,30.15,30.07,0,-305,0,0.00
2013-11-20,-15.3,-11.8,-23.3,-18.9,-57.6,-99.9,84,46,79,30.35,30.12,1,-436,1,0.00
2013-11-21,3.2,-12.3,-22.3,-0.3,-15.8,-26.7,87,83,79,30.30,29.54,1,0,2,0.00
2013-11-22,15.1,9.5,3.3,12.7,7.0,-0.3,93,89,84,29.53,29.19,3,0,3,0.00
2013-11-23,7.3,1.4,-2.4,5.5,-1.2,-5.3,93,88,85,29.89,29.37,1,0,2,0.00
2013-11-24,18.6,11.6,1.9,16.6,9.5,-0.6,94,91,89,29.99,29.89,1,0,1,0.00
2013-11-25,13.7,6.3,0.7,11.8,4.0,-2.0,92,90,88,30.02,29.89,0,0,0,0.00
2013-11-26,6.9,2.9,-3.1,4.8,0.4,-6.0,91,89,87,30.02,29.91,0,0,0,0.00
2013-11-27,2.4,1.1,-1.8,-0.3,-1.5,-4.5,89,88,87,30.01,29.82,0,0,0,0.00
2013-11-28,1.8,-3.9,-6.9,-0.9,-6.9,-10.2,89,86,85,30.01,29.81,0,0,0,0.00
2013-11-29,-5.0,-8.6,-13.2,-8.1,-11.8,-16.9,87,85,83,30.32,30.01,0,0,0,0.00
2013-11-30,-10.6,-16.6,-18.6,-13.8,-20.3,-22.4,86,83,81,30.72,30.32,0,0,0,0.00
2013-12-1,-13.6,-17.0,-19.8,-17.0,-20.7,-23.8,85,83,80,30.76,30.72,0,0,0,0.00
2013-12-2,-1.1,-8.6,-15.9,-3.8,-11.8,-19.5,88,85,83,30.76,30.67,0,0,0,0.00
2013-12-3,7.6,3.9,-3.5,5.5,1.5,-6.5,91,89,86,30.70,30.52,0,0,0,0.00
2013-12-4,14.8,4.8,-0.4,13.4,2.4,-3.3,94,90,87,30.53,30.40,0,0,0,0.00
2013-12-5,22.0,17.5,12.0,19.9,15.0,9.9,93,90,82,30.42,30.36,0,0,0,0.00
2013-12-6,24.7,22.3,17.7,23.2,20.6,15.3,96,93,89,30.41,30.33,0,0,0,0.00
2013-12-7,27.5,24.5,21.4,26.8,22.8,20.2,97,93,87,30.34,30.21,0,0,0,0.00
2013-12-8,29.7,27.7,25.2,29.2,27.0,24.2,98,97,95,30.30,30.14,0,0,0,0.00
2013-12-9,29.5,27.0,23.7,29.0,26.3,22.7,98,97,95,30.17,30.05,0,0,0,0.00
2013-12-10,24.0,12.7,5.9,23.0,9.0,-0.2,96,85,75,30.30,30.06,0,0,0,0.00
2013-12-11,6.2,3.1,0.2,-0.2,-4.6,-8.3,75,69,65,30.27,30.01,7,0,8,0.00
2013-12-12,2.4,-0.5,-2.4,-7.0,-9.5,-12.4,77,65,59,30.01,29.80,7,2,12,0.00
2013-12-13,-0.1,-4.5,-8.3,-7.3,-11.4,-14.2,76,71,64,29.80,29.26,3,0,7,0.00
2013-12-14,3.1,-0.8,-3.7,-0.5,-4.4,-8.1,87,84,69,29.35,29.16,1,0,2,0.00
2013-12-15,-3.8,-9.4,-19.4,-6.9,-13.0,-23.4,86,83,81,30.17,29.34,1,0,1,0.00
2013-12-16,-19.4,-24.4,-27.1,-23.4,-28.6,-31.6,81,80,78,30.39,30.18,0,0,0,0.00
2013-12-17,-6.6,-16.4,-24.2,-9.9,-20.2,-28.6,86,82,79,30.41,30.36,1,0,1,0.00
2013-12-18,2.0,-4.7,-11.2,-1.2,-8.0,-14.9,88,85,82,30.37,29.81,2,0,2,0.00
2013-12-19,4.8,1.0,-7.0,1.9,-1.7,-10.1,90,88,85,29.81,29.73,0,0,0,0.00
2013-12-20,7.7,3.7,-0.6,4.3,0.6,-3.5,90,86,83,29.76,29.62,0,0,1,0.00
2013-12-21,13.5,9.3,3.0,11.2,6.9,-0.2,92,90,85,29.67,29.56,0,0,0,0.00
2013-12-22,12.5,9.4,4.7,10.5,6.8,2.1,93,89,83,29.78,29.50,0,0,0,0.00
2013-12-23,6.1,1.7,-6.3,2.1,-1.5,-9.6,91,86,82,30.17,29.78,0,0,0,0.00
2013-12-24,-6.1,-11.2,-15.4,-8.9,-14.5,-19.2,88,85,82,30.20,30.01,0,0,0,0.00
2013-12-25,-15.3,-21.2,-26.0,-19.1,-25.1,-30.3,84,81,79,30.05,29.98,0,0,0,0.00
2013-12-26,-19.7,-25.2,-29.0,-23.2,-29.3,-33.5,84,80,78,30.14,30.04,0,0,0,0.00
2013-12-27,-16.6,-19.7,-23.2,-20.2,-23.6,-27.3,84,82,79,30.18,30.13,0,0,0,0.00
2013-12-28,5.1,-2.9,-17.3,2.6,-5.8,-21.1,90,87,82,30.16,30.03,0,0,0,0.00
2013-12-29,4.2,-1.9,-6.2,1.7,-4.7,-9.3,90,87,85,30.09,29.91,0,0,0,0.00
2013-12-30,0.9,-3.1,-5.6,-1.5,-5.9,-8.7,90,87,86,29.91,29.69,0,0,0,0.00
2013-12-31,15.9,1.2,-4.3,13.5,-1.4,-7.2,94,88,85,29.78,29.47,0,0,0,0.00
2014-1-1,21.3,15.5,8.8,18.0,13.0,6.7,93,90,87,29.47,29.23,0,0,0,0.00
2014-1-2,8.8,5.5,0.8,7.0,3.1,-1.9,92,89,87,30.05,29.45,0,0,0,0.00